project_name,platform_name,Date_(yyyymmdd),Time_(hh24miss),beacon_ID,latitude_DD,longitude_DD,altitude_m,altitude_result_value_type,speed_m_s,speed_result_value_type,direction_degrees,direction_result_value_type,fix,sat
BaySys,Amundsen,2007-12-11,02:29:01,300034012918920,71.2552,-125.3076,128.6248,Actual,,Calculated,28.8900,Calculated,1,5
BaySys,Amundsen,2007-12-11,04:28:21,300034012918920,71.2550,-125.3134,84.0004,Actual,,Calculated,293.7900,Calculated,1,5
BaySys,Amundsen,2007-12-11,14:28:59,300034012918920,71.2464,-125.3741,-0.2444,Actual,,Calculated,287.7000,Calculated,1,8
BaySys,Amundsen,2007-12-11,16:39:00,300034012918920,71.2503,-125.3896,-4.5764,Actual,,Calculated,166.7100,Calculated,1,5
BaySys,Amundsen,2007-12-11,18:39:17,300034012918920,71.2566,-125.4144,-8.0348,Actual,,Calculated,244.8800,Calculated,1,6
BaySys,Amundsen,2007-12-11,20:41:31,300034012918920,71.2634,-125.4382,61.4731,Actual,,Calculated,192.9900,Calculated,1,8
BaySys,Amundsen,2007-12-12,02:46:07,300034012918920,71.2842,-125.4957,18.5359,Actual,,Calculated,345.4900,Calculated,1,7
BaySys,Amundsen,2007-12-12,04:47:42,300034012918920,71.2943,-125.5216,7.2257,Actual,,Calculated,0.6100,Calculated,1,7
BaySys,Amundsen,2007-12-12,06:47:22,300034012918920,71.3056,-125.5528,1.3022,Actual,,Calculated,355.6800,Calculated,1,10
BaySys,Amundsen,2007-12-12,08:47:35,300034012918920,71.3167,-125.5851,-1.0806,Actual,,Calculated,276.0100,Calculated,1,11
BaySys,Amundsen,2007-12-12,10:47:42,300034012918920,71.3269,-125.6151,16.9305,Actual,,Calculated,316.4100,Calculated,1,9
BaySys,Amundsen,2007-12-12,12:48:05,300034012918920,71.3370,-125.6391,10.5451,Actual,,Calculated,28.0000,Calculated,1,11
BaySys,Amundsen,2007-12-12,14:47:48,300034012918920,71.3465,-125.6606,-4.4573,Actual,,Calculated,311.5900,Calculated,1,8
BaySys,Amundsen,2007-12-12,16:47:35,300034012918920,71.3566,-125.6855,42.2209,Actual,,Calculated,311.8200,Calculated,1,7
BaySys,Amundsen,2007-12-12,18:48:05,300034012918920,71.3687,-125.7161,3.1083,Actual,,Calculated,348.5000,Calculated,1,8
BaySys,Amundsen,2007-12-12,20:48:05,300034012918920,71.3817,-125.7465,2.4819,Actual,,Calculated,39.6000,Calculated,1,7
BaySys,Amundsen,2007-12-12,22:48:05,300034012918920,71.3922,-125.7713,-6.7645,Actual,,Calculated,312.9000,Calculated,1,8
BaySys,Amundsen,2007-12-13,00:47:40,300034012918920,71.4009,-125.7878,-16.7082,Actual,,Calculated,346.6900,Calculated,1,11
BaySys,Amundsen,2007-12-13,02:32:23,300034012918920,71.4083,-125.8008,3.7119,Actual,,Calculated,142.9900,Calculated,1,7
BaySys,Amundsen,2007-12-13,04:32:05,300034012918920,71.4145,-125.8220,2.0807,Actual,,Calculated,330.5300,Calculated,1,8
BaySys,Amundsen,2007-12-13,06:31:55,300034012918920,71.4222,-125.8506,-8.8142,Actual,,Calculated,305.8700,Calculated,1,11
BaySys,Amundsen,2007-12-13,08:31:37,300034012918920,71.4302,-125.8827,-5.0127,Actual,,Calculated,323.4500,Calculated,1,8
BaySys,Amundsen,2007-12-13,10:31:36,300034012918920,71.4371,-125.9120,-10.4850,Actual,,Calculated,315.1300,Calculated,1,7
BaySys,Amundsen,2007-12-13,12:32:05,300034012918920,71.4424,-125.9321,-9.5968,Actual,,Calculated,218.3700,Calculated,1,7
BaySys,Amundsen,2007-12-13,14:32:23,300034012918920,71.4454,-125.9417,-6.8740,Actual,,Calculated,354.5500,Calculated,1,9
BaySys,Amundsen,2007-12-13,16:32:07,300034012918920,71.4464,-125.9492,-0.4685,Actual,,Calculated,29.3200,Calculated,1,6
BaySys,Amundsen,2007-12-13,18:31:53,300034012918920,71.4468,-125.9591,0.7517,Actual,,Calculated,282.5900,Calculated,1,10
BaySys,Amundsen,2007-12-13,20:32:29,300034012918920,71.4469,-125.9679,-5.3303,Actual,,Calculated,172.9800,Calculated,1,10
BaySys,Amundsen,2007-12-13,21:33:01,300034012918920,71.4460,-125.9737,107.8583,Actual,,Calculated,62.9300,Calculated,1,5
BaySys,Amundsen,2007-12-16,20:08:54,300034012918920,71.5029,-126.0964,515.9429,Actual,,Calculated,302.9200,Calculated,1,7
BaySys,Amundsen,2007-12-16,22:07:06,300034012918920,71.5054,-126.1131,-9.6346,Actual,,Calculated,17.1300,Calculated,1,7
BaySys,Amundsen,2007-12-17,00:06:58,300034012918920,71.5100,-126.1301,7.9627,Actual,,Calculated,340.1200,Calculated,1,8
BaySys,Amundsen,2007-12-17,02:07:23,300034012918920,71.5135,-126.1442,-4.7503,Actual,,Calculated,284.7000,Calculated,1,8
BaySys,Amundsen,2007-12-17,04:17:23,300034012918920,71.5157,-126.1531,12.6002,Actual,,Calculated,293.9100,Calculated,1,6
BaySys,Amundsen,2007-12-17,06:27:42,300034012918920,71.5170,-126.1587,0.2199,Actual,,Calculated,133.4800,Calculated,1,7
BaySys,Amundsen,2007-12-17,08:27:24,300034012918920,71.5182,-126.1671,21.8446,Actual,,Calculated,269.4900,Calculated,1,8
BaySys,Amundsen,2007-12-17,10:27:35,300034012918920,71.5198,-126.1830,15.9536,Actual,,Calculated,280.5000,Calculated,1,8
BaySys,Amundsen,2007-12-17,12:28:13,300034012918920,71.5225,-126.2021,-1.2414,Actual,,Calculated,265.0100,Calculated,1,10
BaySys,Amundsen,2007-12-17,14:29:12,300034012918920,71.5242,-126.2200,-14.2934,Actual,,Calculated,249.7000,Calculated,1,7
BaySys,Amundsen,2007-12-17,16:29:35,300034012918920,71.5240,-126.2310,-2.7792,Actual,,Calculated,225.6900,Calculated,1,7
BaySys,Amundsen,2007-12-17,18:29:00,300034012918920,71.5237,-126.2449,13.1671,Actual,,Calculated,243.8100,Calculated,1,5
BaySys,Amundsen,2007-12-17,20:29:35,300034012918920,71.5240,-126.2612,1.3002,Actual,,Calculated,222.4900,Calculated,1,6
BaySys,Amundsen,2007-12-17,22:29:07,300034012918920,71.5250,-126.2829,20.3180,Actual,,Calculated,258.7900,Calculated,1,8
BaySys,Amundsen,2007-12-18,04:34:05,300034012918920,71.5283,-126.3615,2.9247,Actual,,Calculated,0.5000,Calculated,1,8
BaySys,Amundsen,2007-12-18,06:33:54,300034012918920,71.5296,-126.3868,-8.0669,Actual,,Calculated,269.0400,Calculated,1,9
BaySys,Amundsen,2007-12-18,08:34:35,300034012918920,71.5320,-126.4176,2.5121,Actual,,Calculated,283.6500,Calculated,1,10
BaySys,Amundsen,2007-12-18,10:34:04,300034012918920,71.5360,-126.4568,-11.8752,Actual,,Calculated,291.8500,Calculated,1,8
BaySys,Amundsen,2007-12-18,12:33:59,300034012918920,71.5426,-126.4966,-2.7819,Actual,,Calculated,312.5600,Calculated,1,10
BaySys,Amundsen,2007-12-18,14:34:35,300034012918920,71.5509,-126.5273,-1.5519,Actual,,Calculated,305.5700,Calculated,1,9
BaySys,Amundsen,2007-12-18,16:34:24,300034012918920,71.5581,-126.5499,0.8305,Actual,,Calculated,308.1100,Calculated,1,6
BaySys,Amundsen,2007-12-18,18:34:00,300034012918920,71.5624,-126.5677,50.9851,Actual,,Calculated,292.0400,Calculated,1,8
BaySys,Amundsen,2007-12-18,22:44:18,300034012918920,71.5693,-126.6132,-0.6260,Actual,,Calculated,322.0700,Calculated,1,6
BaySys,Amundsen,2007-12-19,00:44:40,300034012918920,71.5731,-126.6397,-4.5391,Actual,,Calculated,263.9800,Calculated,1,13
BaySys,Amundsen,2007-12-19,02:45:39,300034012918920,71.5763,-126.6653,22.2903,Actual,,Calculated,292.3200,Calculated,1,9
BaySys,Amundsen,2007-12-19,04:46:54,300034012918920,71.5795,-126.6867,2.1245,Actual,,Calculated,260.4800,Calculated,1,8
BaySys,Amundsen,2007-12-19,06:46:55,300034012918920,71.5819,-126.7052,8.1854,Actual,,Calculated,335.4700,Calculated,1,9
BaySys,Amundsen,2007-12-19,08:48:32,300034012918920,71.5839,-126.7260,-1.1323,Actual,,Calculated,309.7200,Calculated,1,11
BaySys,Amundsen,2007-12-19,10:48:50,300034012918920,71.5867,-126.7530,8.6778,Actual,,Calculated,306.9400,Calculated,1,9
BaySys,Amundsen,2007-12-19,12:48:51,300034012918920,71.5910,-126.7891,-19.4933,Actual,,Calculated,292.1200,Calculated,1,6
BaySys,Amundsen,2007-12-19,14:49:05,300034012918920,71.5959,-126.8284,-10.6386,Actual,,Calculated,2.3200,Calculated,1,10
BaySys,Amundsen,2007-12-19,16:49:08,300034012918920,71.6006,-126.8626,-1.3804,Actual,,Calculated,274.8800,Calculated,1,8
BaySys,Amundsen,2007-12-19,18:48:56,300034012918920,71.6039,-126.8909,1.9373,Actual,,Calculated,299.8400,Calculated,1,9
BaySys,Amundsen,2007-12-19,20:48:51,300034012918920,71.6052,-126.9183,16.9395,Actual,,Calculated,287.0400,Calculated,1,10
BaySys,Amundsen,2007-12-19,22:48:59,300034012918920,71.6057,-126.9482,-9.6796,Actual,,Calculated,302.9000,Calculated,1,9
BaySys,Amundsen,2007-12-20,00:49:35,300034012918920,71.6070,-126.9797,-7.4619,Actual,,Calculated,286.2500,Calculated,1,13
BaySys,Amundsen,2007-12-20,02:49:18,300034012918920,71.6092,-127.0107,-2.2768,Actual,,Calculated,287.8200,Calculated,1,10
BaySys,Amundsen,2007-12-20,04:49:03,300034012918920,71.6113,-127.0319,-2.6565,Actual,,Calculated,325.2000,Calculated,1,9
BaySys,Amundsen,2007-12-20,06:52:37,300034012918920,71.6124,-127.0478,-3.8822,Actual,,Calculated,234.4600,Calculated,1,11
BaySys,Amundsen,2007-12-20,12:55:48,300034012918920,71.6103,-127.0975,41.9477,Actual,,Calculated,317.0300,Calculated,1,10
BaySys,Amundsen,2007-12-20,14:56:35,300034012918920,71.6101,-127.1206,2.3405,Actual,,Calculated,176.0400,Calculated,1,11
BaySys,Amundsen,2007-12-20,16:57:16,300034012918920,71.6111,-127.1374,28.5013,Actual,,Calculated,300.6700,Calculated,1,8
BaySys,Amundsen,2007-12-20,18:57:21,300034012918920,71.6116,-127.1479,27.9151,Actual,,Calculated,317.2900,Calculated,1,9
BaySys,Amundsen,2007-12-20,20:58:04,300034012918920,71.6117,-127.1546,1.0060,Actual,,Calculated,108.7300,Calculated,1,11
BaySys,Amundsen,2007-12-21,00:58:10,300034012918920,71.6135,-127.1758,26.2059,Actual,,Calculated,327.1900,Calculated,1,10
BaySys,Amundsen,2007-12-21,02:58:35,300034012918920,71.6167,-127.1928,-1.2843,Actual,,Calculated,270.5400,Calculated,1,8
BaySys,Amundsen,2007-12-21,04:59:10,300034012918920,71.6207,-127.2100,10.9243,Actual,,Calculated,311.3600,Calculated,1,8
BaySys,Amundsen,2007-12-21,06:59:05,300034012918920,71.6235,-127.2194,0.4421,Actual,,Calculated,319.3600,Calculated,1,8
BaySys,Amundsen,2007-12-21,09:00:05,300034012918920,71.6248,-127.2272,23.4783,Actual,,Calculated,325.6800,Calculated,1,10
BaySys,Amundsen,2007-12-21,11:08:06,300034012918920,71.6278,-127.2432,-6.1969,Actual,,Calculated,339.0200,Calculated,1,10
BaySys,Amundsen,2007-12-21,13:16:31,300034012918920,71.6343,-127.2691,-15.0556,Actual,,Calculated,318.8800,Calculated,1,9
BaySys,Amundsen,2007-12-21,15:16:10,300034012918920,71.6414,-127.2931,0.7430,Actual,,Calculated,311.1900,Calculated,1,10
BaySys,Amundsen,2007-12-21,17:24:07,300034012918920,71.6473,-127.3112,0.7302,Actual,,Calculated,305.0400,Calculated,1,9
BaySys,Amundsen,2007-12-22,01:33:58,300034012918920,71.6573,-127.3719,14.6144,Actual,,Calculated,300.7200,Calculated,1,10
BaySys,Amundsen,2007-12-22,03:42:26,300034012918920,71.6660,-127.4022,38.4934,Actual,,Calculated,295.6100,Calculated,1,7
BaySys,Amundsen,2007-12-22,05:51:12,300034012918920,71.6772,-127.4337,-3.0722,Actual,,Calculated,69.6700,Calculated,1,8
BaySys,Amundsen,2007-12-22,07:51:32,300034012918920,71.6895,-127.4555,-1.1836,Actual,,Calculated,320.6900,Calculated,1,10
BaySys,Amundsen,2007-12-22,09:51:59,300034012918920,71.6980,-127.4749,-1.9535,Actual,,Calculated,260.8200,Calculated,1,11
BaySys,Amundsen,2007-12-22,11:52:35,300034012918920,71.7043,-127.5032,3.7260,Actual,,Calculated,316.2500,Calculated,1,9
BaySys,Amundsen,2007-12-22,13:52:10,300034012918920,71.7116,-127.5426,-3.2998,Actual,,Calculated,298.8700,Calculated,1,11
BaySys,Amundsen,2007-12-22,15:52:35,300034012918920,71.7190,-127.5871,1.3705,Actual,,Calculated,296.3800,Calculated,1,6
BaySys,Amundsen,2007-12-22,17:52:27,300034012918920,71.7281,-127.6275,-9.1023,Actual,,Calculated,314.1100,Calculated,1,8
BaySys,Amundsen,2007-12-22,19:54:30,300034012918920,71.7337,-127.6537,20.0803,Actual,,Calculated,256.5000,Calculated,1,8
BaySys,Amundsen,2007-12-22,21:55:30,300034012918920,71.7347,-127.6757,3.9531,Actual,,Calculated,277.5800,Calculated,1,7
BaySys,Amundsen,2007-12-22,23:55:23,300034012918920,71.7342,-127.6999,10.3304,Actual,,Calculated,321.6800,Calculated,1,11
BaySys,Amundsen,2007-12-23,01:55:59,300034012918920,71.7337,-127.7287,0.3451,Actual,,Calculated,289.4300,Calculated,1,9
BaySys,Amundsen,2007-12-23,03:55:48,300034012918920,71.7337,-127.7621,-0.1271,Actual,,Calculated,238.7300,Calculated,1,6
BaySys,Amundsen,2007-12-23,05:55:50,300034012918920,71.7339,-127.7980,1.4046,Actual,,Calculated,259.4200,Calculated,1,8
BaySys,Amundsen,2007-12-23,07:55:54,300034012918920,71.7329,-127.8322,12.9959,Actual,,Calculated,256.0000,Calculated,1,8
BaySys,Amundsen,2007-12-23,09:55:52,300034012918920,71.7299,-127.8635,-4.5272,Actual,,Calculated,236.8000,Calculated,1,8
BaySys,Amundsen,2007-12-23,11:55:58,300034012918920,71.7266,-127.8988,23.8826,Actual,,Calculated,249.7700,Calculated,1,10
BaySys,Amundsen,2007-12-23,13:56:07,300034012918920,71.7245,-127.9413,-5.0163,Actual,,Calculated,279.2500,Calculated,1,11
BaySys,Amundsen,2007-12-23,16:04:29,300034012918920,71.7242,-127.9923,-192.7282,Actual,,Calculated,278.3800,Calculated,1,6
BaySys,Amundsen,2007-12-23,20:06:46,300034012918920,71.7272,-128.0737,36.9879,Actual,,Calculated,260.8500,Calculated,1,8
BaySys,Amundsen,2007-12-24,06:16:15,300034012918920,71.7102,-128.2850,-0.6298,Actual,,Calculated,213.3600,Calculated,1,8
BaySys,Amundsen,2007-12-24,08:24:11,300034012918920,71.7094,-128.3298,-0.8188,Actual,,Calculated,219.2100,Calculated,1,9
BaySys,Amundsen,2007-12-24,10:32:10,300034012918920,71.7063,-128.3704,0.4518,Actual,,Calculated,239.3100,Calculated,1,9
BaySys,Amundsen,2007-12-24,12:33:12,300034012918920,71.7016,-128.4143,-9.4760,Actual,,Calculated,154.6300,Calculated,1,6
BaySys,Amundsen,2007-12-24,14:33:35,300034012918920,71.6994,-128.4750,-8.1808,Actual,,Calculated,282.6800,Calculated,1,10
BaySys,Amundsen,2007-12-24,16:33:35,300034012918920,71.7003,-128.5406,0.2043,Actual,,Calculated,308.9200,Calculated,1,6
BaySys,Amundsen,2007-12-24,18:33:35,300034012918920,71.7052,-128.6040,-0.1772,Actual,,Calculated,80.7100,Calculated,1,10
BaySys,Amundsen,2007-12-24,20:33:09,300034012918920,71.7089,-128.6610,3.2942,Actual,,Calculated,260.5600,Calculated,1,10
BaySys,Amundsen,2007-12-24,22:33:35,300034012918920,71.7082,-128.7095,-8.2370,Actual,,Calculated,255.9600,Calculated,1,8
BaySys,Amundsen,2007-12-25,00:35:33,300034012918920,71.7053,-128.7584,21.4912,Actual,,Calculated,271.2300,Calculated,1,11
BaySys,Amundsen,2007-12-25,02:35:10,300034012918920,71.7049,-128.8207,29.3567,Actual,,Calculated,291.0700,Calculated,1,7
BaySys,Amundsen,2007-12-25,04:37:09,300034012918920,71.7100,-128.8954,27.8701,Actual,,Calculated,271.6000,Calculated,1,6
BaySys,Amundsen,2007-12-25,06:44:31,300034012918920,71.7169,-128.9707,-5.4511,Actual,,Calculated,314.8200,Calculated,1,9
BaySys,Amundsen,2007-12-25,10:54:27,300034012918920,71.7207,-129.0863,-130.0909,Actual,,Calculated,265.7200,Calculated,1,9
BaySys,Amundsen,2007-12-25,16:55:36,300034012918920,71.7111,-129.2628,3.4216,Actual,,Calculated,304.0900,Calculated,1,10
BaySys,Amundsen,2007-12-25,18:55:53,300034012918920,71.7116,-129.3197,-3.8075,Actual,,Calculated,219.9200,Calculated,1,11
BaySys,Amundsen,2007-12-25,20:56:01,300034012918920,71.7100,-129.3675,31.1571,Actual,,Calculated,230.8600,Calculated,1,6
BaySys,Amundsen,2007-12-25,22:56:35,300034012918920,71.7062,-129.4115,-6.7167,Actual,,Calculated,203.3800,Calculated,1,7
BaySys,Amundsen,2007-12-26,00:56:35,300034012918920,71.7013,-129.4547,0.5105,Actual,,Calculated,252.4300,Calculated,1,8
BaySys,Amundsen,2007-12-26,02:56:24,300034012918920,71.6962,-129.5045,11.7643,Actual,,Calculated,257.7400,Calculated,1,9
BaySys,Amundsen,2007-12-26,04:56:14,300034012918920,71.6935,-129.5618,-23.6681,Actual,,Calculated,274.0000,Calculated,1,9
BaySys,Amundsen,2007-12-26,06:56:35,300034012918920,71.6917,-129.6177,-8.5844,Actual,,Calculated,263.4800,Calculated,1,10
BaySys,Amundsen,2007-12-26,08:56:42,300034012918920,71.6889,-129.6678,7.8968,Actual,,Calculated,255.1700,Calculated,1,9
BaySys,Amundsen,2007-12-26,10:58:18,300034012918920,71.6830,-129.7147,-1.6935,Actual,,Calculated,240.5600,Calculated,1,10
BaySys,Amundsen,2007-12-26,12:58:15,300034012918920,71.6755,-129.7612,-19.7772,Actual,,Calculated,240.9100,Calculated,1,7
BaySys,Amundsen,2007-12-26,14:58:35,300034012918920,71.6675,-129.8078,3.6393,Actual,,Calculated,159.2000,Calculated,1,7
BaySys,Amundsen,2007-12-26,16:59:05,300034012918920,71.6612,-129.8575,-5.5047,Actual,,Calculated,250.8900,Calculated,1,8
BaySys,Amundsen,2007-12-26,18:58:45,300034012918920,71.6569,-129.9063,-1.8555,Actual,,Calculated,259.0900,Calculated,1,10
BaySys,Amundsen,2007-12-26,20:58:55,300034012918920,71.6524,-129.9501,2.7655,Actual,,Calculated,254.6500,Calculated,1,9
BaySys,Amundsen,2007-12-26,22:59:12,300034012918920,71.6455,-129.9885,29.1858,Actual,,Calculated,237.7100,Calculated,1,8
BaySys,Amundsen,2007-12-27,00:59:26,300034012918920,71.6373,-130.0251,6.4179,Actual,,Calculated,206.7300,Calculated,1,7
BaySys,Amundsen,2007-12-27,02:59:31,300034012918920,71.6292,-130.0690,4.5991,Actual,,Calculated,233.6200,Calculated,1,7
BaySys,Amundsen,2007-12-27,05:00:34,300034012918920,71.6232,-130.1193,-30.7828,Actual,,Calculated,250.7700,Calculated,1,9
BaySys,Amundsen,2007-12-27,07:00:39,300034012918920,71.6200,-130.1691,-4.3027,Actual,,Calculated,260.0600,Calculated,1,10
BaySys,Amundsen,2007-12-27,11:00:52,300034012918920,71.6141,-130.2526,-2.0095,Actual,,Calculated,259.2700,Calculated,1,9
BaySys,Amundsen,2007-12-27,15:02:13,300034012918920,71.6055,-130.3328,5.1510,Actual,,Calculated,293.6600,Calculated,1,8
BaySys,Amundsen,2007-12-27,17:02:35,300034012918920,71.6044,-130.3833,6.6030,Actual,,Calculated,271.4600,Calculated,1,10
BaySys,Amundsen,2007-12-27,19:02:36,300034012918920,71.6065,-130.4386,-1.7432,Actual,,Calculated,251.3900,Calculated,1,8
BaySys,Amundsen,2007-12-27,21:02:22,300034012918920,71.6096,-130.4897,-0.0084,Actual,,Calculated,254.8000,Calculated,1,8
BaySys,Amundsen,2007-12-27,23:02:18,300034012918920,71.6124,-130.5365,3.5052,Actual,,Calculated,256.0800,Calculated,1,10
BaySys,Amundsen,2007-12-28,01:02:53,300034012918920,71.6137,-130.5806,-2.1402,Actual,,Calculated,332.8200,Calculated,1,10
BaySys,Amundsen,2007-12-28,03:03:05,300034012918920,71.6145,-130.6318,30.6693,Actual,,Calculated,275.7500,Calculated,1,9
BaySys,Amundsen,2007-12-28,05:02:32,300034012918920,71.6164,-130.6920,-3.0850,Actual,,Calculated,298.2500,Calculated,1,9
BaySys,Amundsen,2007-12-28,07:02:28,300034012918920,71.6213,-130.7576,-0.7354,Actual,,Calculated,282.2100,Calculated,1,8
BaySys,Amundsen,2007-12-28,09:02:59,300034012918920,71.6291,-130.8229,6.6438,Actual,,Calculated,279.9400,Calculated,1,10
BaySys,Amundsen,2007-12-28,11:02:37,300034012918920,71.6362,-130.8807,-0.0438,Actual,,Calculated,288.9500,Calculated,1,11
BaySys,Amundsen,2007-12-28,13:02:54,300034012918920,71.6399,-130.9324,6.2021,Actual,,Calculated,278.3800,Calculated,1,8
BaySys,Amundsen,2007-12-28,15:02:41,300034012918920,71.6419,-130.9858,-1.9832,Actual,,Calculated,265.6100,Calculated,1,9
BaySys,Amundsen,2007-12-28,17:03:05,300034012918920,71.6433,-131.0434,2.5171,Actual,,Calculated,274.3600,Calculated,1,10
BaySys,Amundsen,2007-12-28,19:02:56,300034012918920,71.6474,-131.1106,20.0533,Actual,,Calculated,294.7800,Calculated,1,8
BaySys,Amundsen,2007-12-28,21:02:47,300034012918920,71.6527,-131.1780,-0.4745,Actual,,Calculated,273.1600,Calculated,1,10
BaySys,Amundsen,2007-12-28,23:02:47,300034012918920,71.6552,-131.2365,0.7967,Actual,,Calculated,288.8100,Calculated,1,9
BaySys,Amundsen,2007-12-29,01:03:29,300034012918920,71.6541,-131.2898,10.0015,Actual,,Calculated,249.5300,Calculated,1,10
BaySys,Amundsen,2007-12-29,03:03:08,300034012918920,71.6511,-131.3498,0.9982,Actual,,Calculated,255.5600,Calculated,1,8
BaySys,Amundsen,2007-12-29,05:02:53,300034012918920,71.6484,-131.4188,-3.5140,Actual,,Calculated,254.2300,Calculated,1,9
BaySys,Amundsen,2007-12-29,07:02:53,300034012918920,71.6482,-131.4901,-1.0788,Actual,,Calculated,279.1700,Calculated,1,9
BaySys,Amundsen,2007-12-29,09:03:29,300034012918920,71.6500,-131.5582,4.7122,Actual,,Calculated,271.1000,Calculated,1,10
BaySys,Amundsen,2007-12-29,11:03:29,300034012918920,71.6504,-131.6169,4.9469,Actual,,Calculated,268.2200,Calculated,1,10
BaySys,Amundsen,2007-12-29,13:03:13,300034012918920,71.6485,-131.6718,8.2322,Actual,,Calculated,275.6800,Calculated,1,8
BaySys,Amundsen,2007-12-29,15:03:00,300034012918920,71.6449,-131.7247,6.4076,Actual,,Calculated,244.8700,Calculated,1,8
BaySys,Amundsen,2007-12-29,17:03:35,300034012918920,71.6399,-131.7784,1.7893,Actual,,Calculated,254.8300,Calculated,1,10
BaySys,Amundsen,2007-12-29,19:03:20,300034012918920,71.6351,-131.8370,25.4763,Actual,,Calculated,292.8600,Calculated,1,8
BaySys,Amundsen,2007-12-29,21:11:51,300034012918920,71.6308,-131.8992,38.8435,Actual,,Calculated,260.0200,Calculated,1,8
BaySys,Amundsen,2007-12-29,23:19:46,300034012918920,71.6261,-131.9546,-7.1596,Actual,,Calculated,219.1900,Calculated,1,11
BaySys,Amundsen,2007-12-30,01:20:04,300034012918920,71.6204,-132.0024,148.6923,Actual,,Calculated,265.3300,Calculated,1,8
BaySys,Amundsen,2007-12-30,03:19:51,300034012918920,71.6141,-132.0508,4.9938,Actual,,Calculated,230.7600,Calculated,1,8
BaySys,Amundsen,2007-12-30,05:19:59,300034012918920,71.6053,-132.1075,6.5045,Actual,,Calculated,242.5800,Calculated,1,9
BaySys,Amundsen,2007-12-30,07:20:23,300034012918920,71.5983,-132.1640,-16.1390,Actual,,Calculated,25.7200,Calculated,1,9
BaySys,Amundsen,2007-12-30,09:21:56,300034012918920,71.5928,-132.2167,21.7843,Actual,,Calculated,222.6300,Calculated,1,8
BaySys,Amundsen,2007-12-30,17:21:51,300034012918920,71.5620,-132.4202,-4.4915,Actual,,Calculated,227.2100,Calculated,1,7
BaySys,Amundsen,2007-12-30,19:22:24,300034012918920,71.5536,-132.4736,6.6920,Actual,,Calculated,242.7100,Calculated,1,8
BaySys,Amundsen,2007-12-30,21:22:02,300034012918920,71.5464,-132.5240,30.9258,Actual,,Calculated,260.3000,Calculated,1,9
BaySys,Amundsen,2007-12-30,23:22:35,300034012918920,71.5392,-132.5726,-15.5194,Actual,,Calculated,269.8900,Calculated,1,10
BaySys,Amundsen,2007-12-31,01:23:30,300034012918920,71.5308,-132.6206,-0.7082,Actual,,Calculated,238.6700,Calculated,1,7
BaySys,Amundsen,2007-12-31,03:23:35,300034012918920,71.5217,-132.6664,4.3201,Actual,,Calculated,316.8100,Calculated,1,7
BaySys,Amundsen,2007-12-31,05:23:10,300034012918920,71.5124,-132.7126,-2.9446,Actual,,Calculated,252.1500,Calculated,1,9
BaySys,Amundsen,2007-12-31,11:23:34,300034012918920,71.4878,-132.8546,14.7717,Actual,,Calculated,245.5200,Calculated,1,9
BaySys,Amundsen,2007-12-31,13:24:05,300034012918920,71.4792,-132.8965,-0.4615,Actual,,Calculated,250.7100,Calculated,1,10
BaySys,Amundsen,2007-12-31,15:24:06,300034012918920,71.4704,-132.9367,2.2363,Actual,,Calculated,248.8300,Calculated,1,6
BaySys,Amundsen,2007-12-31,17:24:24,300034012918920,71.4617,-132.9765,9.5269,Actual,,Calculated,248.1200,Calculated,1,10
BaySys,Amundsen,2007-12-31,19:24:20,300034012918920,71.4546,-133.0175,63.6795,Actual,,Calculated,237.1300,Calculated,1,7
BaySys,Amundsen,2007-12-31,21:24:37,300034012918920,71.4483,-133.0622,24.2341,Actual,,Calculated,264.1500,Calculated,1,8
BaySys,Amundsen,2007-12-31,23:24:40,300034012918920,71.4425,-133.1094,-4.3353,Actual,,Calculated,278.8500,Calculated,1,7
BaySys,Amundsen,2008-01-01,01:25:05,300034012918920,71.4360,-133.1554,3.4289,Actual,,Calculated,258.2200,Calculated,1,8
BaySys,Amundsen,2008-01-01,03:25:06,300034012918920,71.4296,-133.2008,5.3109,Actual,,Calculated,226.8000,Calculated,1,6
BaySys,Amundsen,2008-01-01,05:24:44,300034012918920,71.4239,-133.2443,-6.2412,Actual,,Calculated,255.8900,Calculated,1,11
BaySys,Amundsen,2008-01-01,07:25:05,300034012918920,71.4198,-133.2873,0.8272,Actual,,Calculated,244.8200,Calculated,1,9
BaySys,Amundsen,2008-01-01,09:25:08,300034012918920,71.4158,-133.3317,17.6284,Actual,,Calculated,271.7000,Calculated,1,10
BaySys,Amundsen,2008-01-01,11:24:59,300034012918920,71.4113,-133.3775,-3.8023,Actual,,Calculated,275.4700,Calculated,1,8
BaySys,Amundsen,2008-01-01,13:24:54,300034012918920,71.4062,-133.4261,-3.4325,Actual,,Calculated,252.3100,Calculated,1,11
BaySys,Amundsen,2008-01-01,15:25:18,300034012918920,71.4017,-133.4748,-0.7467,Actual,,Calculated,215.2200,Calculated,1,6
BaySys,Amundsen,2008-01-01,17:25:23,300034012918920,71.3975,-133.5218,11.4602,Actual,,Calculated,218.4200,Calculated,1,8
BaySys,Amundsen,2008-01-01,19:25:54,300034012918920,71.3927,-133.5691,14.3863,Actual,,Calculated,246.2400,Calculated,1,10